Flag for Romania Weather past 2 weeks in Oradea, Romania

Now
36 °F

Clear.


Feels Like: 30 °F
Forecast: 33 / 48 °F
Wind: 7 mph from West

Location: Oradea Airport

Current Time: Mar 3, 2015 at 9:31:43 PM

Latest Report: Mar 3, 2015 at 8:30 PM


Visibility: 10 mi

Pressure: 30.24 "Hg

Humidity: 75%

Dew point: 28 °F

Location of OradeaLocation

Historic Weather in Oradea — Graph

°F

Oradea temperature yesterday

Maximum temperature yesterday: 54 °F (at 2:00 PM)
Minimum temperature yesterday: 41 °F (at 4:00 AM)
Average temperature yesterday: 47 °F

Past Weeks' High & Low Weather Summary

 TemperatureHumidityPressure
High61 °F (Feb 24, 3:30 PM)100% (Feb 26, 3:00 AM)30.74 "Hg (Feb 26, 3:00 AM)
Low19 °F (Feb 18, 6:30 AM)24% (Feb 18, 3:00 PM)29.65 "Hg (Feb 24, 2:30 PM)
Average42 °F76%30.05 "Hg
* Reported Feb 16 8:00 PM — Mar 3 8:30 PM, Oradea, Weather by CustomWeather, © 2015

Note: Actual official high and low records may vary slightly from our data, if they occured in-between our weather recording intervals... More about our weather records

Advertising

Oradea weather history for previous 24 hours

 ConditionsComfort  
Time TempWeatherWind HumidityBarometerVisibility
8:30 PM
Tue, Mar 3
36 °FClear.7 mph75%30.24 "Hg10 mi
8:00 PM36 °FClear.7 mph75%30.21 "Hg10 mi
7:30 PM37 °FClear.7 mph70%30.21 "Hg10 mi
7:00 PM37 °FClear.6 mph75%30.21 "Hg10 mi
6:30 PM41 °FClear.10 mph66%30.18 "Hg10 mi
6:00 PM43 °FSunny.15 mph57%30.18 "Hg10 mi
5:30 PM45 °FSunny.20 mph53%30.15 "Hg10 mi
5:00 PM46 °FSunny.21 mph50%30.15 "Hg10 mi
4:30 PM45 °FSunny.23 mph53%30.15 "Hg10 mi
4:00 PM46 °FScattered clouds.21 mph53%30.12 "HgN/A
3:30 PM46 °FScattered clouds.20 mph53%30.12 "HgN/A
3:00 PM46 °FSunny.18 mph53%30.12 "Hg10 mi
2:30 PM45 °FSunny.22 mph57%30.09 "Hg10 mi
2:00 PM45 °FScattered clouds.22 mph57%30.09 "HgN/A
1:30 PM45 °FScattered clouds.24 mph57%30.09 "HgN/A
1:00 PM45 °FPartly sunny.21 mph57%30.09 "HgN/A
12:30 PM43 °FPartly sunny.24 mph61%30.09 "HgN/A
12:00 PM45 °FScattered clouds.23 mph57%30.09 "HgN/A
11:30 AM45 °FPartly sunny.20 mph61%30.09 "HgN/A
11:00 AM43 °FPassing clouds.21 mph66%30.07 "HgN/A
10:30 AM43 °FPassing clouds.20 mph66%30.07 "HgN/A
10:00 AM43 °FPartly sunny.14 mph71%30.07 "HgN/A
9:30 AM43 °FSunny.10 mph76%30.07 "Hg10 mi
9:00 AM41 °FSunny.7 mph81%30.04 "Hg10 mi
8:30 AM37 °FSunny.8 mph87%30.04 "Hg10 mi
8:00 AM37 °FPassing clouds.9 mph93%30.04 "HgN/A
7:30 AM37 °FPartly sunny.6 mph93%30.01 "HgN/A
7:00 AM36 °FPassing clouds.3 mph93%30.01 "HgN/A
6:30 AM36 °FPassing clouds.3 mph93%29.98 "HgN/A
6:00 AM37 °FPassing clouds.5 mph87%29.98 "HgN/A
5:30 AM37 °FPassing clouds.5 mph93%29.98 "HgN/A
5:00 AM37 °FChilly.5 mph93%29.95 "HgN/A
4:30 AM39 °FPartly cloudy.5 mph93%29.95 "HgN/A
4:00 AM39 °FPassing clouds.6 mph93%29.92 "HgN/A
3:00 AM41 °FOvercast.5 mph87%29.89 "HgN/A
2:00 AM41 °FPassing clouds.5 mph87%29.86 "HgN/A
1:00 AM43 °FPartly cloudy.5 mph87%29.83 "HgN/A
12:00 AM45 °FPassing clouds.10 mph87%29.83 "HgN/A
11:00 PM
Mon, Mar 2
46 °FPartly cloudy.10 mph93%29.80 "Hg4 mi
10:30 PM46 °FPartly cloudy.10 mph93%29.80 "Hg5 mi
10:00 PM46 °FSprinkles. Partly cloudy.10 mph93%29.80 "Hg5 mi
9:30 PM45 °FSprinkles. Passing clouds.7 mph93%29.77 "HgN/A
9:00 PM46 °FRain. Fog.9 mph93%29.77 "Hg3 mi
Weather by CustomWeather, © 2015

See weather overviewHow to use our weather pages